Fullerton, CA

11:55 PM PDT on June 25, 2017 (GMT -0700)
Fullerton Municipal

Weather History for KFUL - February, 2013

Change the Weather History Date:

Tuesday, February 19, 2013

  Actual Average Record
Temperature  
Mean Temperature 57 °F 58 °F  
Max Temperature 59 °F 68 °F 77 °F (2000)
Min Temperature 54 °F 48 °F 42 °F (2006)
Degree Days  
Heating Degree Days 8 7  
Month to date heating degree days 123 145  
Since 1 July heating degree days 611 862  
Cooling Degree Days 0 0  
Month to date cooling degree days 10 0  
Year to date cooling degree days 12 4  
Growing Degree Days 4 (Base 50)    
Moisture  
Dew Point 42 °F    
Average Humidity 62    
Maximum Humidity 72    
Minimum Humidity 51    
Precipitation  
Precipitation 0.01 in 0.15 in 1.94 in (2005)
Month to date precipitation 0.36 2.20  
Year to date precipitation 1.31 5.23  
Since 1 July precipitation 4.62  
Snow  
Snow 0.00 in - - ()
Month to date snowfall 0.0  
Year to date snowfall 0.0  
Snow Depth 0.00 in    
Sea Level Pressure  
Sea Level Pressure 29.86 in    
Wind  
Wind Speed 6 mph (South)    
Max Wind Speed 13 mph    
Max Gust Speed 23 mph    
Visibility 9 miles    
Events Rain    
T = Trace of Precipitation, MM = Missing Value Source: NWS Daily Summary

Daily Weather History Graph

Daily Weather History Graph

Search for Another Location

Airport or City:

Trip Planner

Search our weather history database for the weather conditions in past years. The results will help you decide how hot, cold, wet, or windy it might be!

Date:

Astronomy

Feb. 19, 2013 Rise Set
Actual Time 6:31 AM PST 5:40 PM PST
Civil Twilight 6:06 AM PST 6:05 PM PST
Nautical Twilight 5:37 AM PST 6:34 PM PST
Astronomical Twilight 5:08 AM PST 7:03 PM PST
Moon 12:23 PM PST (2/19) 1:59 AM PST (2/19)
Length of Visible Light 11h 58m
Length of Day
11h 08m
Waxing Gibbous, 68% of the Moon is Illuminated
Feb 19
Waxing Gibbous
Feb 25
Full
Mar 4
Last Quarter
Mar 11
New
Mar 19
First Quarter

Hourly Weather History & Observations

Time (PST) Temp. Dew Point Humidity Pressure Visibility Wind Dir Wind Speed Gust Speed Precip Events Conditions
12:53 AM 55.9 °F 41.0 °F 57% 29.99 in 10.0 mi SSE 5.8 mph - N/A   Overcast
1:16 AM 55.4 °F 39.2 °F 54% 29.99 in 10.0 mi Calm Calm - N/A   Overcast
1:53 AM 55.9 °F 41.0 °F 57% 29.97 in 10.0 mi SE 6.9 mph - N/A   Overcast
2:53 AM 55.0 °F 39.9 °F 57% 29.96 in 10.0 mi South 6.9 mph - N/A   Mostly Cloudy
3:53 AM 55.0 °F 37.9 °F 53% 29.94 in 10.0 mi SE 5.8 mph - N/A   Overcast
4:53 AM 55.0 °F 37.9 °F 53% 29.94 in 10.0 mi SSE 4.6 mph - N/A   Overcast
5:53 AM 55.0 °F 37.9 °F 53% 29.95 in 10.0 mi ESE 3.5 mph - N/A   Overcast
6:53 AM 55.9 °F 37.9 °F 51% 29.95 in 10.0 mi Variable 4.6 mph - N/A   Overcast
7:53 AM 55.9 °F 37.0 °F 49% 29.94 in 10.0 mi SE 4.6 mph - N/A   Overcast
8:53 AM 55.9 °F 37.0 °F 49% 29.95 in 10.0 mi South 3.5 mph - N/A   Overcast
10:53 AM 57.0 °F 42.1 °F 57% 29.93 in 10.0 mi SE 8.1 mph - N/A   Overcast
11:23 AM 53.6 °F 46.4 °F 77% 29.92 in 5.0 mi SSE 9.2 mph - 0.01 in Rain Rain
11:53 AM 55.0 °F 46.9 °F 74% 29.91 in 10.0 mi SE 8.1 mph - 0.01 in   Overcast
12:14 PM 55.4 °F 46.4 °F 72% 29.90 in 10.0 mi SE 6.9 mph - N/A   Overcast
12:32 PM 55.4 °F 46.4 °F 72% 29.89 in 10.0 mi SSE 6.9 mph - 0.00 in   Overcast
12:53 PM 55.0 °F 46.9 °F 74% 29.88 in 10.0 mi SSE 4.6 mph - 0.00 in   Overcast
1:13 PM 55.4 °F 46.4 °F 72% 29.87 in 10.0 mi SE 6.9 mph - N/A   Overcast
1:53 PM 55.9 °F 43.0 °F 62% 29.86 in 10.0 mi West 5.8 mph - N/A   Overcast
2:53 PM 59.0 °F 42.1 °F 53% 29.84 in 10.0 mi SSW 9.2 mph - N/A   Overcast
4:53 PM 57.0 °F 39.0 °F 51% 29.80 in 10.0 mi Variable 5.8 mph - N/A   Mostly Cloudy
5:53 PM 55.0 °F 39.0 °F 55% 29.80 in 10.0 mi SW 8.1 mph 17.3 mph N/A   Overcast
6:53 PM 55.0 °F 39.0 °F 55% 29.79 in 10.0 mi Variable 4.6 mph - N/A   Overcast
7:53 PM 54.0 °F 43.0 °F 66% 29.78 in 10.0 mi SW 5.8 mph - 0.00 in   Overcast
8:53 PM 53.1 °F 43.0 °F 69% 29.75 in 10.0 mi SW 6.9 mph - 0.00 in   Scattered Clouds
9:24 PM 51.8 °F 44.6 °F 76% 29.75 in 2.5 mi WNW 9.2 mph - 0.00 in Rain Heavy Rain
9:31 PM 50.0 °F 42.8 °F 76% 29.75 in 3.0 mi WNW 5.8 mph - 0.01 in Rain Heavy Rain
9:53 PM 48.9 °F 44.1 °F 83% 29.75 in 10.0 mi Calm Calm - 0.04 in Rain Light Rain
10:27 PM 48.2 °F 42.8 °F 82% 29.74 in 10.0 mi Calm Calm - 0.04 in   Overcast
10:53 PM 50.0 °F 44.1 °F 80% 29.73 in 10.0 mi Calm Calm - 0.05 in Rain Light Rain
11:10 PM 50.0 °F 44.6 °F 82% 29.72 in 10.0 mi South 3.5 mph - 0.00 in   Overcast
11:53 PM 50.0 °F 41.0 °F 71% 29.71 in 10.0 mi West 5.8 mph 17.3 mph 0.00 in   Mostly Cloudy